STARLINK-3307

decayed
NORAD ID: 50164 Int'l Des: 2021-125 Owner: SPXS Country: US Constellation: starlink
LEOCIRCULAR
グループ

STARLINK-3307について

説明を読み込み中...

高度履歴

Altitude vs Time

uPlot chart will show altitude changes over time

軌道要素

1 50164U 21125J 22167.07672121 .99999999 12430-4 81965-2 0 9998
2 50164 53.1826 190.9484 0010425 320.3567 41.0592 16.39511435 31177
Epoch: Jun 16, 2022 • Age: 28525 hours

現在のステータス

Position data unavailable
打ち上げ日 Dec 18, 2021
運用期間 3.7 years
落下予定日 Jun 16, 2022
タイプ internet

技術仕様

分類 Payload
質量 290.00 kg
乾燥質量 270.00 kg
総質量 290.00 kg
長さ 0.20 m
直径 2.80 m
スパン 9.00 m
形状 Box + pan
製造者 SPXS
バスタイプ Starlink
フェーズステータス Reentered
所有者/国 SPXS/US

大規模コンステレーション

Loading constellations...